Torna al catalogo

EXPRESS AM-6

AttivoComunicazioniGEO
NORAD 40277·PAYLOAD·🇷🇺 Russia

Lanciato Oct 21, 2014 da Baikonur Cosmodrome

Loading…

TLE

AggiornatoSource: Space-Track

Epoca: Sep 14, 2026, 14:03 UTC

1 40277U 14064A   26257.58567439  .00000000  00000-0  00000-0 0  9994
2 40277   0.0192 167.2457 0002001  25.0871  65.0603  1.00271194 42463

Traccia EXPRESS AM-6 in tempo reale con AllMySat

Download on the App Store